Location: Oshawa
(43.9000°N, 78.8670°W)
Time: 08:11:45
(UTC-04:00)

Cosmos 1707 Rocket - Visible Passes

Search period start: 30 August 2014 00:00
Search period end: 09 September 2014 00:00
Orbit: 606 x 635 km, 82.5° (Epoch: 28 August)

Date Brightness Start Highest point End Pass type
(mag) Time Alt. Az. Time Alt. Az. Time Alt. Az.
30 Aug 6.4 00:47:56 14° NNE 00:47:56 14° NNE 00:48:32 10° NNE visible
31 Aug 6.4 01:05:36 15° N 01:05:36 15° N 01:06:19 10° N visible
01 Sep 6.5 01:23:16 13° N 01:23:16 13° N 01:23:51 10° N visible
02 Sep 6.6 01:40:55 11° NNW 01:40:55 11° NNW 01:41:04 10° NNW visible
03 Sep 6.6 00:21:23 12° NNE 00:21:23 12° NNE 00:21:39 10° NNE visible
04 Sep 6.6 00:39:02 12° N 00:39:02 12° N 00:39:24 10° N visible
05 Sep 6.7 00:56:39 11° N 00:56:39 11° N 00:56:54 10° N visible
06 Sep 6.6 23:54:43 10° NNE 23:54:43 10° NNE 23:54:46 10° NNE visible
08 Sep 6.7 00:12:19 11° N 00:12:19 11° N 00:12:29 10° N visible
